Location: Boston
(42.3580°N, 71.0600°W)
Time: 19:43:12
(UTC-05:00)

Envisat - Pass Details

Date: 14 October 2017
Orbit: 764 x 766 km, 98.2° (Epoch: 14 December)

Event Time Altitude Azimuth Distance (km) Brightness Sun altitude
Exits shadow 22:00:19 13° 289° (WNW) 2,115 5.8 -42.9°
Drops below altitude 10° 22:01:33 10° 302° (WNW) 2,310 6.1 -43.1°
Sets 22:05:02 0° 327° (NNW) 3,243 6.9 -43.6°
